Location: Auckland
(36.8670°S, 174.7670°E)
Time: 19:10:45
(UTC+12:00)

Tiros 1 despin weight - Pass Details

Date: 25 July 2019
Orbit: 594 x 642 km, 48.2° (Epoch: 26 August)

Event Time Altitude Azimuth Distance (km) Brightness Sun altitude
Rises 22:15:03 0° 307° (NW) 2,839 - -56.4°
Reaches altitude 10° 22:17:20 10° 307° (NW) 1,938 - -56.8°
Maximum altitude 22:21:48 88° 37° (NE) 606 - -57.6°
Drops below altitude 10° 22:26:16 10° 124° (SE) 1,950 - -58.5°
Sets 22:28:35 0° 124° (SE) 2,859 - -58.9°
